Regional Weather Roundup
Issued by NWS

Home | Current Version | Previous Version | Text Only | Print | Product List | Glossary Off
Versions: 1 2 3 4 5 6 7 8 9 10 11 12 13 14 15 16 17 18 19 20 21 22 23 24 25 26 27 28 29 30 31 32 33 34 35 36 37 38 39 40 41 42 43 44 45 46 47 48 49 50

000
ASUS43 KDTX 160601
RWRMI
MICHIGAN HOURLY REGIONAL WEATHER ROUNDUP
NATIONAL WEATHER SERVICE DETROIT/PONTIAC MI
200 AM EDT MON OCT 16 2017

NOTE: "FAIR" INDICATES FEW OR NO CLOUDS BELOW 12,000 FEET WITH NO
SIGNIFICANT WEATHER AND/OR OBSTRUCTION TO VISIBILITY.

MIZ047>049-052>055-059>063-066>070-074>076-081>083-160700-
SOUTHEAST LOWER MICHIGAN

CITY           SKY/WX    TMP DP  RH WIND       PRES   REMARKS
ADRIAN         CLEAR     43  39  86 N5        30.19S
6HR MIN TEMP:  43; 6HR MAX TEMP:  52;

ALMA           CLOUDY    43  40  88 W10       30.20R
ANN ARBOR      CLEAR     37  37 100 CALM      30.17S
BAD AXE        PTCLDY    42  34  74 NW7       30.16S
CARO           CLEAR     43  35  74 N6        30.17R
DETROIT CITY   CLEAR     46  40  79 NW5       30.17R
6HR MIN TEMP:  46; 6HR MAX TEMP:  54;

DETROIT        CLEAR     44  39  82 NW6       30.18R
6HR MIN TEMP:  44; 6HR MAX TEMP:  53;

FLINT          CLEAR     41  39  93 NW6       30.19R
6HR MIN TEMP:  41; 6HR MAX TEMP:  50;

GROSSE ILE     CLEAR     46  40  81 NW7       30.17R
6HR MIN TEMP:  46; 6HR MAX TEMP:  54;

HILLSDALE      CLEAR     39  37  93 NW5       30.18S
HOWELL         CLEAR     42  40  93 W3        30.18R
6HR MIN TEMP:  41; 6HR MAX TEMP:  50;


CITY           SKY/WX    TMP DP  RH WIND       PRES   REMARKS
JACKSON        PTCLDY    39  38  96 CALM      30.18S
6HR MIN TEMP:  39; 6HR MAX TEMP:  51;

LAMBERTVILLE   CLEAR     46  40  81 CALM      30.19R
6HR MIN TEMP:  45; 6HR MAX TEMP:  55;

LANSING        CLOUDY    44  40  85 CALM      30.20R
6HR MIN TEMP:  42; 6HR MAX TEMP:  50;

LAPEER         FAIR      40  39  98 W3        30.18R
6HR MIN TEMP:  40; 6HR MAX TEMP:  49;

MASON          MOCLDY    44  41  89 W3        30.19R
MONROE         CLEAR     44  40  86 W5        30.17S
6HR MIN TEMP:  43; 6HR MAX TEMP:  54;

MT. CLEMENS    CLEAR     45  38  79 NW5       30.15R
6HR MIN TEMP:  45; 6HR MAX TEMP:  52;

PONTIAC        CLEAR     43  32  65 NW6       30.16R
6HR MIN TEMP:  43; 6HR MAX TEMP:  50;

PORT HOPE        N/A     48  38  68 NW15G26   30.13R
6HR MIN TEMP:  48; 6HR MAX TEMP:  51;

PORT HURON     CLEAR     45  36  70 NW6       30.16R
TRI CITIES     MOCLDY    41  39  93 N6        30.19R
6HR MIN TEMP:  41; 6HR MAX TEMP:  49;

MIDLAND        CLOUDY    37  37 100 CALM      30.18S
6HR MIN TEMP:  35; 6HR MAX TEMP:  48; 6HR PCP:  0.01;

TROY           CLEAR     45  40  81 NW3       30.19R
SAGINAW HB     CLEAR     39  37  93 NW5       30.18R
$$
MIZ043>046-050>051-056>058-064>065-071>073-077>080-160700-
SOUTHWEST LOWER MICHIGAN

CITY           SKY/WX    TMP DP  RH WIND       PRES   REMARKS
BATTLE CREEK   LGT RAIN  46  45  96 W7        30.21R
6HR MIN TEMP:  43; 6HR MAX TEMP:  51; 6HR PCP: TRACE;

BENTON HARBOR  CLOUDY    53  41  63 NW9       30.21S
6HR MIN TEMP:  48; 6HR MAX TEMP:  55; 6HR PCP:  0.06;

BIG RAPIDS     CLOUDY    43  38  82 CALM      30.19R
6HR MIN TEMP:  42; 6HR MAX TEMP:  46;

COLDWATER      CLOUDY    44  44 100 W5        30.20R
6HR MIN TEMP:  42; 6HR MAX TEMP:  49;

FREMONT        CLOUDY    44  44 100 CALM      30.20S
HOLLAND        LGT RAIN  47  44  90 SE3       30.21R FOG
6HR MIN TEMP:  47; 6HR MAX TEMP:  50; 6HR PCP:  0.24;

GRAND RAPIDS   LGT RAIN  48  46  93 W7        30.20R
6HR MIN TEMP:  47; 6HR MAX TEMP:  50; 6HR PCP: TRACE;

IONIA          CLOUDY    46  42  86 CALM      30.19S
6HR MIN TEMP:  45; 6HR MAX TEMP:  49;

LUDINGTON      LGT RAIN  43  42  95 CALM      30.20R
6HR MIN TEMP:  43; 6HR MAX TEMP:  47; 6HR PCP:  0.01;

MARSHALL       CLOUDY    43  43  98 CALM      30.20R
6HR MIN TEMP:  40; 6HR MAX TEMP:  50;

MOUNT PLEASANT CLOUDY    44  38  80 CALM      30.19R
6HR MIN TEMP:  43; 6HR MAX TEMP:  50;

MUSKEGON       CLOUDY    47  44  90 SE5       30.21S
6HR MIN TEMP:  47; 6HR MAX TEMP:  50; 6HR PCP:  0.28;

SOUTH HAVEN    CLOUDY    48  46  93 CALM      30.21R
$$
MIZ016>042-160700-
NORTHERN LOWER MICHIGAN

CITY           SKY/WX    TMP DP  RH WIND       PRES   REMARKS
ALPENA         PTCLDY    38  37  97 W5        30.18R WCI  34
6HR MIN TEMP:  38; 6HR MAX TEMP:  46; 6HR PCP: TRACE;

BEAVER ISLAND  CLEAR     34  33  94 CALM      30.18S
6HR MIN TEMP:  33; 6HR MAX TEMP:  45;

BELLAIRE       CLEAR     32  32  98 CALM      30.19R
6HR MIN TEMP:  32; 6HR MAX TEMP:  46;

CADILLAC       CLOUDY    37  33  84 CALM      30.17R
CHARLEVOIX     PTCLDY    44  33  64 E3        30.20S
FRANKFORT      CLOUDY    45  41  86 SE3       30.18R
GAYLORD        CLEAR     34  30  85 CALM      30.17R
6HR MIN TEMP:  33; 6HR MAX TEMP:  42;

GRAYLING       PTCLDY    30  29  94 CALM      30.18R
6HR MIN TEMP:  29; 6HR MAX TEMP:  43;

HARBOR SPRINGS CLEAR     34  32  94 NE3       30.18R
HOUGHTON LAKE  PTCLDY    32  31  96 CALM      30.18R
6HR MIN TEMP:  32; 6HR MAX TEMP:  44;

MANISTEE       RAIN      42  41  96 CALM      30.20R
OSCODA         PTCLDY    38  33  82 NW3       30.17R
6HR MIN TEMP:  38; 6HR MAX TEMP:  47;

PELLSTON       CLEAR     30  30 100 CALM      30.19R
6HR MIN TEMP:  30; 6HR MAX TEMP:  45;

ROGERS CITY    PTCLDY    41  27  57 N12G20    30.18S
TRAVERSE CITY  CLOUDY    46  35  65 SE5       30.18R
6HR MIN TEMP:  46; 6HR MAX TEMP:  50;

$$
MIZ007>008-015-160700-
EASTERN UPPER MICHIGAN

CITY           SKY/WX    TMP DP  RH WIND       PRES   REMARKS
KINROSS        PTCLDY    30  29  96 S3        30.17S
6HR MIN TEMP:  30; 6HR MAX TEMP:  42;

MACKINAC ISLAN CLEAR     38  28  64 NE7       30.17S WCI  33
6HR MIN TEMP:  38; 6HR MAX TEMP:  44;

NEWBERRY       PTCLDY    31  30  96 CALM      30.16R
6HR MIN TEMP:  31; 6HR MAX TEMP:  39;

S. S. MARIE    CLOUDY    35  30  82 SE3       30.16R
6HR MIN TEMP:  34; 6HR MAX TEMP:  41; 6HR PCP:  0.01;

MUNISING         N/A     36  35  96 S8        30.15S WCI  30
6HR MIN TEMP:  35; 6HR MAX TEMP:  47;

$$
MIZ004>006-011>014-085-160700-
CENTRAL UPPER MICHIGAN

CITY           SKY/WX    TMP DP  RH WIND       PRES   REMARKS
MANISTIQUE     PTCLDY    30  25  81 CALM      30.17S
6HR MIN TEMP:  28; 6HR MAX TEMP:  39;

SAWYER-GWINN   MOCLDY    32  31  96 CALM      30.14F
6HR MIN TEMP:  32; 6HR MAX TEMP:  36;

$$
MIZ001>003-009>011-084-160700-
WESTERN UPPER MICHIGAN

CITY           SKY/WX    TMP DP  RH WIND       PRES   REMARKS
IRON MOUNTAIN  PTCLDY    32  29  88 W3        30.15S
6HR MIN TEMP:  32; 6HR MAX TEMP:  42;

HOUGHTON       CLEAR     35  31  85 NW6       30.10R WCI  30
6HR MIN TEMP:  35; 6HR MAX TEMP:  43; 6HR PCP:  0.03;

COPPER HARBOR    N/A     41  37  86 W6        30.09F
6HR MIN TEMP:  39; 6HR MAX TEMP:  45; 6HR PCP:  0.04;

IRONWOOD       CLEAR     35  31  85 SW3       30.15S
6HR MIN TEMP:  32; 6HR MAX TEMP:  41;

$$

ABBREVIATIONS USED IN REMARKS
   TC - TEMPERATURE IN CELSIUS
  WCI - WIND CHILL INDEX
   HX - HEAT INDEX
  VSB - VISIBILITY





USA.gov is the U.S. government's official web portal to all federal, state and local government web resources and services.